Regional Weather Roundup
Issued by NWS Newport/Morehead, NC

Current Version | Previous Version | Text Only | Print | Product List | Glossary On
Versions: 1 2 3 4 5 6 7 8 9 10 11 12 13 14 15 16 17 18 19 20 21 22 23 24 25 26 27 28 29 30 31 32 33 34 35 36 37 38 39 40 41 42 43 44 45 46 47 48 49 50
000 ASUS42 KMHX 240722 RWRMHX WEATHER ROUNDUP FOR EASTERN NORTH CAROLINA NATIONAL WEATHER SERVICE NEWPORT/MOREHEAD CITY NC 300 AM EDT THU JUL 24 2014 NOTE: "FAIR" INDICATES FEW OR NO CLOUDS BELOW 12,000 FEET WITH NO SIGNIFICANT WEATHER AND/OR OBSTRUCTIONS TO VISIBILITY NCZ015>017-031-032-045>047-102-103-240800- NORTH COAST CITY SKY/WX TMP DP RH WIND PRES REMARKS EDENTON CLEAR 78 74 90 SW8 29.88F ELIZABETH CITY CLEAR 77 75 93 SW12 29.88F KITTY HAWK SUNNY 78 75 90 SW8 29.87F MANTEO NOT AVBL $$ NCZ045>047-081-094-103-104-240800- CENTRAL COAST CITY SKY/WX TMP DP RH WIND PRES REMARKS FRISCO CLEAR 79 77 94 W9 29.91F SWANQUARTER N/A 79 N/A N/A W12G17 29.88S $$ NCZ095-097-098-100-101-240800- SOUTHERN COAST CITY SKY/WX TMP DP RH WIND PRES REMARKS BEAUFORT PTCLDY 81 77 88 SW15 29.92F CEDAR ISLAND N/A 79 N/A N/A S8G14 29.94F JACKSONVILLE MOCLDY 76 75 97 SW7 29.93F NEWPORT NOT AVBL PINEY ISLAND MOSUNNY 78 78 100 SW8 29.92F WILMINGTON PTCLDY 78 76 93 SW6 29.94F $$ NCZ011>013-027>030-043-044-078>080-089-090>093-098-240800- COASTAL PLAIN CITY SKY/WX TMP DP RH WIND PRES REMARKS AHOSKIE CLEAR 75 72 91 CALM 29.88F CLINTON CLOUDY 76 75 99 CALM 29.93F ELIZABETHTOWN CLEAR 77 76 96 SW5 29.94F GOLDSBORO PTCLDY 77 76 98 SW8 29.91S GREENVILLE PTCLDY 77 73 88 SW9 29.93S HAVELOCK PTCLDY 77 73 87 SW7 29.94F KENANSVILLE PTCLDY 75 73 92 SW3 29.94F KINSTON CLEAR 77 74 92 SW8 29.92F NEW BERN CLEAR 77 73 87 SW6 29.93F RICHLANDS PTCLDY 75 72 88 SW7 29.93F ROANOKE RAPIDS NOT AVBL ROCKY MOUNT MOCLDY 77 74 90 SW8 29.90F WASHINGTON PTCLDY 75 73 93 SW7 29.90F WHITEVILLE CLEAR 76 74 92 CALM 29.95S $$ AMZ130-135-150-152-154-156-158-170-250-252-270-ANZ085-086-088-633-658-670-240800- MARINE OBSERVATIONS STATION/POSITION TIME TEMP WIND PRES WAVE SWELL AIR SEA DIR/SP/G HT/PER HT/PER (UTC) (F) (DEG/KT/KT) (MB) (FT/S) (FT/S) CHESAPEAKE LIGHT NOT AVBL BUOY 44014 0700 79 79 230/ 14/ 17 1010.6 4/ 7 2/ 7 DUCK 0700 79 74 230/ 16/ 18 1011.2 2E DUCK 0600 N/A 2/ 8 OREGON INLET 0700 80 84 230/ 16/ 20 1012.0 BUOY 44095 0700 78 N/A 4/ 7 20E OREGON INLET NOT AVBL HATTERAS CG 0700 78 82 230/ 9/ 14 1013.3 DIAMOND BUOY 0700 VRB 17/ 21 1012.6 4/ 4 2/ 9 CAPE LOOKOUT 0700 80 230/ 11/ 15 1013.3 BEAUFORT LAB 0700 80 81 240/ 5/ 10 1013.2 30 SE NEW RIVER 0700 80 81 240/ 17/ 21 1014.0 4/ 7 2/ 8 5 SE WRIGHTSVILL 0600 78 81 240/ 14/ 16 N/A BUOY 41002 0637 82 82 220/ 19/ 23 1016.8 5/ 6 2/ 8 BUOY 41004 0700 82 82 220/ 16/ 17 1014.4 3/ 6 2/ 6 $$

USA.gov is the U.S. government's official web portal to all federal, state and local government web resources and services.